Location: Breuil
(49.3618°N, 2.4363°E)
Time: 10:42:53
(UTC+00:00)

Daily predictions for brighter satellites

Satellite Brightness Start Highest point End
(mag) Time Altitude Azimuth Time Altitude Azimuth Time Altitude Azimuth
Cosmos 1066 Rocket 4.4 18:27:30 10° N 18:33:21 64° ENE 18:39:07 10° SSE
Cosmos 2233 Rocket 4.0 18:27:21 10° S 18:33:27 72° E 18:39:37 10° NNE
Cosmos 1802 Rocket 4.5 18:28:16 10° SSW 18:34:26 69° WNW 18:40:44 10° N
Cosmos 1726 1.4 18:33:14 10° S 18:35:57 56° E 18:38:42 10° NNE
Resurs 1-3 3.6 18:32:41 10° SSE 18:36:57 62° ENE 18:41:15 10° N
SAR-Lupe-2 3.5 18:41:19 10° SSE 18:44:54 80° ENE 18:48:30 10° NNW
Cosmos 1315 Rocket 4.4 18:43:41 10° NNE 18:46:26 18° ENE 18:49:10 10° ESE
Meteor PRIRODA 3.3 18:46:25 10° SSE 18:49:40 63° ENE 18:52:56 10° N
ATLAS 2AS CENTAUR R/B 4.3 18:43:22 10° W 18:49:51 35° NNW 18:56:09 10° NE
Cosmos 1125 Rocket 4.1 18:45:28 10° N 18:50:18 37° ENE 18:55:08 10° SE
Cosmos 1842 3.3 18:48:19 10° N 18:51:50 46° ENE 18:55:19 10° SSE
USA 59 Rocket 0.2 18:49:36 10° NW 18:53:23 78° SW 18:58:36 10° SE
Cosmos 1536 3.7 18:51:06 10° SSE 18:54:17 26° E 18:57:31 10° NNE
Okean 3 Rocket 4.3 18:50:48 10° SSE 18:54:45 32° E 18:58:42 10° NNE
Cosmos 2061 Rocket 4.3 18:49:06 10° SSW 18:55:32 78° W 19:02:01 10° N
Cosmos 1707 2.9 18:52:14 10° N 18:55:38 41° ENE 18:59:00 10° SSE
COSMOS 2428 2.7 18:50:06 10° SSW 18:55:45 68° ESE 19:01:28 10° NNE
Cosmos 1515 Rocket 4.2 18:51:50 10° N 18:55:52 36° ENE 18:59:54 10° SE
Cosmos 1818 3.9 18:55:26 10° SW 19:00:54 74° NW 19:06:25 10° NE
Okean O Rocket 2.6 18:57:42 10° ESE 19:01:24 28° ENE 19:05:11 10° N
Cosmos 2278 Rocket 2.2 19:00:41 10° NNW 19:06:22 76° ENE 19:12:02 10° SSE
USA 306 2.2 19:04:35 10° WSW 19:07:40 85° NNW 19:11:18 10° ENE
CZ-4B DEB 4.2 19:03:41 10° SSE 19:09:12 89° WSW 19:14:44 10° NNW
CZ-4 R/B 1.2 19:06:23 10° SSE 19:10:12 80° ENE 19:14:07 10° NNW
CZ-4B R/B 3.2 19:08:21 10° SSE 19:13:42 61° ENE 19:19:00 10° N
NOSS 2-1 (C) 4.2 19:10:01 10° NW 19:13:44 52° SW 19:18:45 10° SSE
Cosmos 1766 Rocket 3.5 19:09:57 10° S 19:14:19 89° ESE 19:18:45 10° N
Resurs 01 Rocket 1.6 19:11:23 10° SSE 19:15:45 64° ENE 19:20:08 10° N
Meteor 2-17 Rocket 4.4 19:09:45 10° N 19:15:50 76° E 19:21:54 10° SSE
Helios 1A 2.8 19:12:27 10° NNE 19:16:33 79° ESE 19:20:36 10° SSW
USA 290 2.5 19:13:32 10° NNW 19:16:50 72° WSW 19:20:06 10° SSE
ADEOS 4.1 19:13:15 10° S 19:18:25 62° WSW 19:23:37 10° NNW
GEOS 3 Rocket 3.7 19:13:45 10° SE 19:18:59 79° SW 19:24:11 10° NW
USA 186 1.7 19:17:51 10° SSE 19:21:02 74° ENE 19:24:17 10° N
CZ-4B R/B 4.1 19:16:38 10° S 19:21:16 55° WSW 19:26:02 10° NNW
Cosmos 1814 Rocket 4.1 19:16:47 10° SSW 19:22:06 86° WNW 19:27:23 10° NNE
PAYLOAD B 4.3 19:16:43 10° SSE 19:22:20 90° W 19:27:58 10° NNW
Cosmos 2360 Rocket 4.4 19:17:41 10° WSW 19:22:27 27° NW 19:27:13 10° NNE
KORONAS-FOTON 3.9 19:19:03 10° NNW 19:22:45 71° W 19:26:25 10° S
Cosmos 1743 4.4 19:19:40 10° SW 19:22:57 34° WNW 19:26:14 10° N
MOS 1-B 4.4 19:17:56 10° SE 19:23:36 60° ENE 19:29:17 10° N
SPOT 5 3.8 19:22:14 19° ESE 19:24:24 27° ENE 19:28:09 10° N
Okean-O 3.6 19:23:04 20° ESE 19:25:10 29° ENE 19:28:58 10° N
USA 267 4.0 19:21:32 10° ENE 19:27:42 46° N 19:33:52 10° WNW
Cosmos 1408 Rocket 4.0 19:24:23 10° SSE 19:28:27 40° E 19:32:36 10° NNE
ISS -3.3 19:26:16 10° SW 19:29:27 42° SSE 19:30:43 28° E
SPOT 1/Viking Rocket 4.4 19:24:33 10° S 19:29:36 53° W 19:34:40 10° NNW
NOSS 3-3 (A) 4.3 19:25:12 10° S 19:29:57 33° ESE 19:35:23 10° NE
CZ-4B R/B 3.2 19:26:26 10° S 19:30:16 64° WSW 19:34:20 10° NNW
Kosmos-1783 4.3 19:30:16 10° WSW 19:32:06 25° NW 19:33:12 14° N
SL-08 R/B 4.0 19:28:13 10° N 19:33:05 61° WNW 19:37:55 10° SSW
Cosmos 2237 Rocket 2.2 19:29:18 10° S 19:34:46 57° ESE 19:40:17 10° NE
CSL-04 Rocket 3.6 19:32:08 10° SSE 19:37:30 83° ENE 19:42:49 10° NNW
Aureole 3 Rocket 4.1 19:31:13 10° SSE 19:37:30 42° E 19:42:07 10° NNE
Cosmos 2219 Rocket 4.0 19:34:34 10° WSW 19:39:41 34° NW 19:44:50 10° NNE
Cosmos 1356 Rocket 4.0 19:38:37 10° NNW 19:42:45 59° W 19:46:51 10° S
Meteor 1-14 Rocket 4.5 19:38:01 10° SSW 19:43:32 72° WNW 19:49:06 10° N
Lacrosse 4 Rocket 4.2 19:41:53 10° WNW 19:44:26 15° WSW 19:46:58 10° SW
Meteor 1-4 Rocket 4.3 19:43:33 10° NW 19:45:43 22° W 19:47:51 10° SSW
IKONOS-2 4.5 19:42:15 10° NNE 19:46:21 54° E 19:50:23 10° S
Meteor 1-11 Rocket 3.6 19:40:57 10° S 19:46:31 68° E 19:52:02 10° NNE
MOS 1 Rocket 4.2 19:45:38 27° ESE 19:47:40 37° ENE 19:52:32 10° N
CARTOSAT-1 4.1 19:46:36 10° S 19:50:47 58° W 19:55:00 10° NNW
Cosmos 158 Rocket 3.8 19:46:55 10° S 19:51:43 60° ESE 19:56:31 10° NNE
ATLAS CENTAUR R/B 1.0 19:48:14 10° SSW 19:51:44 56° SE 19:54:53 13° NE
NOSS 3-4 (A) 4.3 19:46:41 10° NW 19:52:59 46° NE 19:57:11 24° E
NOSS 3-4 (C) 4.3 19:46:48 10° NW 19:53:05 46° NE 19:57:18 24° E
Cosmos 1805 Rocket 3.7 19:52:47 30° SSE 19:54:34 48° E 19:58:45 10° NNE
Cosmos 1428 Rocket 4.4 19:51:49 10° N 19:57:57 74° E 20:02:18 20° SSE
Cosmos 1733 3.3 19:55:25 10° SSW 19:58:49 65° W 20:02:14 10° N
In-Cosmos 22 4.4 19:54:57 10° NNW 20:00:38 71° W 20:06:01 11° S
USA 276 3.4 19:58:23 10° W 20:00:38 26° SW 20:00:38 26° SW
Cosmos 2369 Rocket 3.1 19:58:05 10° NNW 20:03:18 35° NE 20:05:12 28° E
Cosmos 1980 3.7 19:58:37 10° SSW 20:04:18 85° WNW 20:10:03 10° NNE
Meteor 1-21 4.4 20:02:32 10° N 20:08:12 57° ENE 20:10:23 36° SE
Sich 1 2.8 20:07:33 28° S 20:09:43 74° E 20:14:02 10° NNE
Cosmos 1943 Rocket 2.7 20:05:01 10° NW 20:10:24 55° WSW 20:14:05 20° S
Cosmos 1707 Rocket 4.3 20:07:00 10° N 20:11:04 35° ENE 20:11:04 35° ENE
DELTA 2 DEB (DPAF) 4.1 20:07:57 10° NNE 20:11:47 48° E 20:11:47 48° E
NOSS 0 Rocket 4.4 20:06:45 10° SW 20:12:56 63° NW 20:19:10 10° NNE
Cosmos 2298 Rocket 3.9 20:08:58 10° NNW 20:14:18 89° ENE 20:16:27 37° SSE
Terra 2.3 20:13:52 39° E 20:14:22 41° ENE 20:18:47 10° N
ACS3 Solar Sail 2.0 20:09:36 15° S 20:15:02 77° WSW 20:21:29 10° NNW
ERS-1 Rocket 3.2 20:14:04 42° ESE 20:15:07 50° ENE 20:19:59 10° N
Nadezhda 4 Rocket 4.4 20:09:04 10° NNW 20:15:15 64° W 20:21:28 10° S
Cosmos 2195 Rocket 4.4 20:09:18 10° N 20:15:28 87° E 20:19:12 25° S
Cosmos 2150 Rocket 3.9 20:10:48 10° NNW 20:16:00 89° WSW 20:17:56 39° SSE
USA 32 3.9 20:11:23 10° N 20:16:40 89° E 20:19:24 29° S
Cosmos 1570 Rocket 4.1 20:11:43 10° SSW 20:17:00 76° WNW 20:22:17 10° NNE
Cosmos 1975 3.4 20:18:58 40° NE 20:18:58 40° NE 20:21:47 10° NNE
Cosmos 1805 3.0 20:21:35 69° SSW 20:21:59 82° W 20:25:39 10° N
Cosmos 1315 Rocket 3.6 20:18:56 10° NNW 20:22:46 48° W 20:24:27 28° SSW
Cosmos 2026 Rocket 3.9 20:16:32 10° N 20:22:49 84° E 20:25:51 32° SSE
Cosmos 1092 Rocket 3.9 20:16:56 10° N 20:23:18 82° E 20:26:28 32° SSE
Ariane Rocket 3.6 20:24:21 37° ENE 20:24:43 38° ENE 20:29:23 10° N
Meteor 2-12 Rocket 4.4 20:20:26 10° N 20:26:36 74° ENE 20:28:55 40° SSE
Cosmos 836 Rocket 4.4 20:22:12 10° SSW 20:27:30 89° ESE 20:32:50 10° NNE
IRS-1A Rocket 4.2 20:26:27 44° SE 20:28:21 73° ENE 20:34:02 10° NNW
Okean 3 4.1 20:29:31 10° N 20:32:45 40° NE 20:32:45 40° NE
SL-16 R/B 2.2 20:35:16 53° ESE 20:35:16 53° ESE 20:40:42 10° NE
Okean O Rocket 2.9 20:35:02 20° SSW 20:37:32 37° W 20:41:40 10° NNW
Cosmos 1634 Rocket 3.9 20:36:32 35° S 20:39:20 75° E 20:45:41 10° NNE
Cosmos 1656 Rocket 3.6 20:34:40 10° NNW 20:40:22 76° ENE 20:41:19 61° ESE
SL-14 R/B 3.7 20:36:42 10° NNW 20:40:25 53° W 20:40:36 52° WSW
USA 306 3.6 20:37:17 10° WNW 20:40:34 40° N 20:40:34 40° N
USA 59 Rocket 3.0 20:40:54 10° W 20:42:42 12° WSW 20:44:41 10° SW
IRS-1C Rocket 4.0 20:45:02 63° SSE 20:45:57 89° ENE 20:51:16 10° NNW
Cosmos 773 Rocket 3.9 20:45:39 42° SSW 20:47:31 86° ESE 20:52:51 10° NNE
Cosmos 2278 Rocket 4.4 20:45:49 10° NW 20:49:49 20° W 20:53:48 10° SW
Okean 1-7 4.3 20:45:55 10° N 20:48:39 31° NNE 20:48:39 31° NNE
Cosmos 2263 4.4 20:45:51 10° NNW 20:51:30 54° NE 20:51:55 52° ENE
Resurs 01 Rocket 4.3 20:49:49 10° SW 20:52:36 16° W 20:55:23 10° NW
Cosmos 2228 Rocket 3.2 20:50:57 10° NNW 20:55:20 78° NW 20:55:20 78° NW
SPOT 3 Rocket 3.5 21:00:55 70° NE 21:00:55 70° NE 21:05:51 10° N
Okean-O 3.8 21:00:31 32° SW 21:01:27 36° W 21:05:31 10° NNW
SPOT 5 3.8 21:01:22 36° SW 21:02:17 40° W 21:06:31 10° NNW
Cosmos 2142 Rocket 4.4 21:02:36 65° E 21:02:37 65° E 21:08:43 10° NNE
NOSS 3-3 (C) 4.0 21:00:39 10° SW 21:06:08 70° NW 21:12:42 10° NE
ISS -1.1 21:02:50 10° W 21:03:42 17° W 21:03:42 17° W
USA 267 3.5 21:08:22 46° ENE 21:10:11 63° NNE 21:16:38 10° WNW
Cosmos 724 4.3 21:15:30 64° NE 21:15:30 64° NE 21:20:23 10° NE
Cosmos 2180 Rocket 4.4 21:17:01 72° E 21:17:01 72° E 21:23:20 10° NNE
Cosmos 2237 Rocket 3.9 21:14:12 10° WSW 21:19:10 31° NW 21:24:08 10° NNE
NOSS 3-3 (A) 4.4 21:14:58 10° WSW 21:20:26 57° NW 21:26:57 10° NE
Cosmos 2279 Rocket 3.9 21:19:59 67° SSW 21:20:53 82° W 21:27:10 10° N
Cosmos 1607 4.0 21:18:00 10° SW 21:24:29 81° NW 21:30:58 10° NE
Cosmos 2297 4.1 21:23:35 10° NW 21:28:59 56° WSW 21:28:59 56° WSW
ATLAS CENTAUR R/B 3.5 21:26:27 10° W 21:29:25 23° NNW 21:29:51 22° NNW
Spot 2 Rocket 4.0 21:31:06 52° W 21:31:06 52° W 21:35:41 10° NNW
NOSS 3-4 (A) 4.0 21:37:27 10° NW 21:44:12 61° SW 21:44:37 60° SW
NOSS 3-4 (C) 4.0 21:37:34 10° NW 21:44:19 61° SW 21:44:43 61° SW
Cosmos 2369 Rocket 2.9 21:42:01 10° NW 21:46:58 48° W 21:46:58 48° W
Terra 3.5 21:52:34 27° W 21:52:34 27° W 21:56:07 10° NW
ACS3 Solar Sail 4.3 21:56:37 10° WSW 22:00:07 15° W 22:03:39 10° NW
Ariane Rocket 4.4 22:04:30 32° WNW 22:04:30 32° WNW 22:08:16 10° NNW
Cosmos 2266 Rocket 4.4 22:03:58 10° NNW 22:09:40 56° WNW 22:09:40 56° WNW
SL-16 R/B 3.7 22:17:00 23° W 22:19:33 33° NW 22:24:40 10° NNE
ATLAS 2AS CENTAUR R/B 3.7 22:29:18 10° NW 22:35:42 38° NNE 22:36:31 36° NE
USA 267 4.2 22:55:43 38° WNW 22:55:43 38° WNW 22:59:43 10° WNW
Cosmos 1697 Rocket 4.3 22:48:42 10° NNW 22:52:28 29° NNE 22:52:28 29° NNE
Cosmos 2344 3.9 23:19:25 10° NW 23:27:14 82° W 23:27:14 82° W
Cosmos 1980 Rocket 3.8 23:48:54 10° NNW 23:52:13 31° N 23:52:13 31° N
